Alamosa, CO

2:52 PM MST on February 14, 2016 (GMT -0700)
San Luis Valley Regional / Bergman Field

Weather History for KALS - May, 2013

Change the Weather History Date:

Friday, May 10, 2013

  Actual Average Record
Temperature  
Mean Temperature 41 °F 50 °F  
Max Temperature 61 °F 67 °F 78 °F (2000)
Min Temperature 21 °F 32 °F 17 °F (1948)
Degree Days  
Heating Degree Days 24 15  
Month to date heating degree days 235 168  
Since 1 July heating degree days 8687 8168  
Cooling Degree Days 0 0  
Month to date cooling degree days 0 0  
Year to date cooling degree days 0 0  
Moisture  
Dew Point 26 °F    
Average Humidity 55    
Maximum Humidity 85    
Minimum Humidity 24    
Precipitation  
Precipitation 0.02 in 0.02 in 0.32 in (1955)
Month to date precipitation 0.05 0.20  
Year to date precipitation 0.93 1.84  
Snow  
Snow 0.00 in 0.10 in 1.00 in (1992)
Month to date snowfall 0.0 0.6  
Since 1 July snowfall 21.1 27.3  
Snow Depth 0.00 in    
Sea Level Pressure  
Sea Level Pressure 30.17 in    
Wind  
Wind Speed 6 mph (NNE)    
Max Wind Speed 20 mph    
Max Gust Speed 31 mph    
Visibility 10 miles    
Events Rain    
T = Trace of Precipitation, MM = Missing Value Source: NWS Daily Summary

Daily Weather History Graph

Daily Weather History Graph

Search for Another Location

Airport or City:

Trip Planner

Search our weather history database for the weather conditions in past years. The results will help you decide how hot, cold, wet, or windy it might be!

Date:

Astronomy

May. 10, 2013 Rise Set
Actual Time 5:58 AM MDT 8:01 PM MDT
Civil Twilight 5:29 AM MDT 8:30 PM MDT
Nautical Twilight 4:54 AM MDT 9:05 PM MDT
Astronomical Twilight 4:16 AM MDT 9:43 PM MDT
Moon 6:24 AM MDT (5/10) 8:52 PM MDT (5/10)
Length of Visible Light 15h 00m
Length of Day
14h 03m
New Moon, 1% of the Moon is Illuminated
May 10
New Moon
May 17
First Quarter
May 24
Full
May 31
Last Quarter
Jun 8
New

Hourly Weather History & Observations

Time (MDT) Temp. Windchill Dew Point Humidity Pressure Visibility Wind Dir Wind Speed Gust Speed Precip Events Conditions
12:52 AM 37.0 °F 32.4 °F 28.9 °F 73% 30.15 in 10.0 mi West 5.8 mph - N/A   Clear
1:52 AM 37.4 °F 32.8 °F 28.4 °F 70% 30.25 in 10.0 mi WNW 5.8 mph - N/A   Mostly Cloudy
2:52 AM 34.0 °F 29.8 °F 27.0 °F 75% 30.15 in 10.0 mi NW 4.6 mph - N/A   Clear
3:52 AM 30.0 °F - 24.1 °F 79% 30.17 in 10.0 mi Calm Calm - N/A   Clear
4:52 AM 26.1 °F - 21.9 °F 84% 30.18 in 10.0 mi Calm Calm - N/A   Clear
5:52 AM 26.1 °F - 21.9 °F 84% 30.20 in 10.0 mi Calm Calm - N/A   Clear
6:52 AM 28.9 °F 25.2 °F 24.1 °F 82% 30.20 in 10.0 mi West 3.5 mph - N/A   Clear
7:52 AM 39.9 °F 35.1 °F 27.0 °F 60% 30.18 in 10.0 mi NW 6.9 mph - N/A   Clear
8:52 AM 46.0 °F 44.8 °F 28.9 °F 51% 30.16 in 10.0 mi NE 3.5 mph - N/A   Clear
9:52 AM 50.0 °F - 27.0 °F 41% 30.15 in 10.0 mi North 5.8 mph - N/A   Clear
10:52 AM 54.0 °F - 26.1 °F 34% 30.15 in 10.0 mi Variable 5.8 mph - N/A   Clear
11:52 AM 57.0 °F - 24.1 °F 28% 30.12 in 10.0 mi NE 8.1 mph - N/A   Partly Cloudy
12:52 PM 57.0 °F - 21.9 °F 26% 30.12 in 10.0 mi North 10.4 mph - N/A   Mostly Cloudy
1:52 PM 59.0 °F - 23.0 °F 25% 30.10 in 10.0 mi Variable 5.8 mph - N/A   Mostly Cloudy
2:52 PM 59.0 °F - 24.1 °F 26% 30.09 in 10.0 mi East 15.0 mph 19.6 mph N/A   Overcast
3:52 PM 55.0 °F - 27.0 °F 34% 30.12 in 10.0 mi Variable 4.6 mph 31.1 mph 0.00 in Rain Light Rain
4:52 PM 54.0 °F - 32.0 °F 43% 30.17 in 10.0 mi NNE 9.2 mph - 0.02 in   Scattered Clouds
5:52 PM 55.9 °F - 27.0 °F 33% 30.17 in 10.0 mi NNE 10.4 mph 17.3 mph N/A   Overcast
6:52 PM 55.9 °F - 23.0 °F 28% 30.16 in 10.0 mi ENE 10.4 mph 19.6 mph N/A   Mostly Cloudy
7:52 PM 50.0 °F - 26.1 °F 39% 30.18 in 10.0 mi NE 11.5 mph - N/A   Clear
8:52 PM 45.0 °F 43.5 °F 28.0 °F 52% 30.21 in 10.0 mi ESE 3.5 mph - N/A   Clear
9:52 PM 43.0 °F 39.5 °F 28.9 °F 58% 30.24 in 10.0 mi East 5.8 mph - N/A   Mostly Cloudy
10:52 PM 41.0 °F 37.1 °F 32.0 °F 70% 30.26 in 10.0 mi East 5.8 mph - N/A   Mostly Cloudy
11:52 PM 39.0 °F - 30.0 °F 70% 30.26 in 10.0 mi Calm Calm - N/A   Scattered Clouds